| time (UTC) | temp F | wind direction | speed MPH | gust MPH | rain 1hr in | rain 24hr in | rain mn in | humidity % | barometer mb |
| 20260506173106 | 43 | 359 | 2.0 | 9.0 | 0.00 | 0.00 | 0.00 | 58 | 1008.3 |
| 20260506171552 | 42 | 283 | 1.0 | 4.0 | 0.00 | 0.00 | 0.00 | 62 | 1008.3 |
| 20260506170046 | 42 | 246 | 2.0 | 7.0 | 0.00 | 0.00 | 0.00 | 61 | 1008.2 |
| 20260506164545 | 42 | 209 | 2.0 | 7.0 | 0.00 | 0.00 | 0.00 | 62 | 1008.1 |
| 20260506163048 | 41 | 220 | 2.0 | 6.0 | 0.00 | 0.00 | 0.00 | 61 | 1007.9 |
| 20260506161552 | 41 | 228 | 1.0 | 5.0 | 0.00 | 0.00 | 0.00 | 66 | 1007.9 |
| 20260506160039 | 41 | 256 | 0.0 | 3.0 | 0.00 | 0.00 | 0.00 | 64 | 1007.9 |
| 20260506154538 | 40 | 201 | 1.0 | 8.0 | 0.00 | 0.00 | 0.00 | 64 | 1007.7 |
| 20260506153038 | 40 | 179 | 0.0 | 7.0 | 0.00 | 0.00 | 0.00 | 64 | 1007.6 |
| 20260506151535 | 39 | 210 | 2.0 | 7.0 | 0.00 | 0.00 | 0.00 | 67 | 1007.4 |
| 20260506150036 | 37 | 201 | 3.0 | 9.0 | 0.00 | 0.00 | 0.00 | 71 | 1007.4 |
| 20260506144532 | 36 | 21 | 0.0 | 0.0 | 0.00 | 0.00 | 0.00 | 75 | 1007.3 |
| 20260506143031 | 36 | 21 | 0.0 | 3.0 | 0.00 | 0.00 | 0.00 | 74 | 1007.2 |
| 20260506141528 | 36 | 21 | 1.0 | 3.0 | 0.00 | 0.00 | 0.00 | 73 | 1007.1 |
| 20260506140027 | 35 | 206 | 2.0 | 7.0 | 0.00 | 0.00 | 0.00 | 72 | 1007.0 |
| 20260506134600 | 35 | 168 | 1.0 | 5.0 | 0.00 | 0.00 | 0.00 | 74 | 1007.0 |
| 20260506133024 | 35 | 201 | 1.0 | 5.0 | 0.00 | 0.00 | 0.00 | 74 | 1006.9 |
| 20260506131527 | 34 | 216 | 2.0 | 4.0 | 0.00 | 0.00 | 0.00 | 73 | 1006.9 |
| 20260506130020 | 35 | 330 | 0.0 | 4.0 | 0.00 | 0.00 | 0.00 | 72 | 1006.9 |
| 20260506124518 | 35 | 233 | 0.0 | 0.0 | 0.00 | 0.00 | 0.00 | 71 | 1006.8 |
| 20260506123014 | 36 | 231 | 0.0 | 0.0 | 0.00 | 0.00 | 0.00 | 68 | 1006.8 |
| 20260506121512 | 37 | 232 | 3.0 | 4.0 | 0.00 | 0.00 | 0.00 | 66 | 1006.5 |
| 20260506120012 | 38 | 359 | 0.0 | 4.0 | 0.00 | 0.00 | 0.00 | 66 | 1006.4 |
| 20260506114519 | 39 | 212 | 3.0 | 5.0 | 0.00 | 0.00 | 0.00 | 58 | 1006.1 |
| 20260506113008 | 40 | 271 | 0.0 | 6.0 | 0.00 | 0.00 | 0.00 | 56 | 1006.1 |
| 20260506111506 | 40 | 206 | 3.0 | 8.0 | 0.00 | 0.00 | 0.00 | 59 | 1006.0 |
| 20260506110011 | 40 | 224 | 2.0 | 8.0 | 0.00 | 0.00 | 0.00 | 62 | 1005.9 |
| 20260506104504 | 40 | 197 | 4.0 | 7.0 | 0.00 | 0.00 | 0.00 | 63 | 1005.9 |
| 20260506103009 | 39 | 220 | 4.0 | 8.0 | 0.00 | 0.00 | 0.00 | 63 | 1005.9 |
| 20260506101600 | 38 | 242 | 2.0 | 6.0 | 0.00 | 0.00 | 0.00 | 64 | 1005.8 |
| 20260506100101 | 36 | 177 | 1.0 | 5.0 | 0.00 | 0.00 | 0.00 | 67 | 1005.5 |
| 20260506094554 | 37 | 299 | 0.0 | 2.0 | 0.00 | 0.00 | 0.00 | 66 | 1005.6 |
| 20260506093055 | 37 | 299 | 0.0 | 0.0 | 0.00 | 0.00 | 0.00 | 67 | 1005.3 |
| 20260506091548 | 38 | 359 | 0.0 | 2.0 | 0.00 | 0.00 | 0.00 | 63 | 1005.2 |
| 20260506090045 | 38 | 299 | 0.0 | 4.0 | 0.00 | 0.00 | 0.00 | 60 | 1004.9 |
| 20260506084542 | 39 | 247 | 0.0 | 2.0 | 0.00 | 0.00 | 0.00 | 64 | 1004.6 |
| 20260506083042 | 40 | 248 | 0.0 | 3.0 | 0.00 | 0.00 | 0.00 | 57 | 1004.6 |
| 20260506081543 | 40 | 359 | 4.0 | 8.0 | 0.00 | 0.00 | 0.00 | 55 | 1004.2 |
| 20260506073032 | 43 | 359 | 0.0 | 4.0 | 0.00 | 0.00 | 0.00 | 52 | 1003.6 |
| 20260506071526 | 43 | 239 | 3.0 | 7.0 | 0.00 | 0.00 | 0.00 | 48 | 1003.5 |
| 20260506061533 | 44 | 207 | 1.0 | 5.0 | 0.00 | 0.00 | 0.00 | 48 | 1003.1 |
| 20260506044519 | 46 | 359 | 8.0 | 16.0 | 0.00 | 0.00 | 0.00 | 45 | 1002.1 |
| 20260506043017 | 46 | 213 | 4.0 | 12.0 | 0.00 | 0.00 | 0.00 | 47 | 1002.4 |
| 20260506041514 | 46 | 195 | 4.0 | 12.0 | 0.00 | 0.00 | 0.00 | 47 | 1002.4 |
| 20260506040018 | 47 | 182 | 6.0 | 16.0 | 0.00 | 0.00 | 0.00 | 47 | 1002.3 |
| 20260506034512 | 48 | 193 | 5.0 | 15.0 | 0.00 | 0.00 | 0.00 | 43 | 1002.3 |
| 20260506033015 | 48 | 209 | 6.0 | 11.0 | 0.00 | 0.00 | 0.00 | 42 | 1002.2 |
| 20260506031511 | 47 | 202 | 5.0 | 15.0 | 0.00 | 0.00 | 0.00 | 44 | 1002.1 |
| 20260506030012 | 47 | 201 | 8.0 | 15.0 | 0.00 | 0.00 | 0.00 | 46 | 1002.1 |
| 20260506024525 | 48 | 197 | 7.0 | 19.0 | 0.00 | 0.00 | 0.00 | 44 | 1001.9 |
| 20260506023008 | 49 | 182 | 4.0 | 13.0 | 0.00 | 0.00 | 0.00 | 42 | 1001.8 |
| 20260506021510 | 50 | 14 | 4.0 | 16.0 | 0.00 | 0.00 | 0.00 | 39 | 1001.7 |
| 20260506020006 | 51 | 294 | 9.0 | 18.0 | 0.00 | 0.00 | 0.00 | 35 | 1001.7 |
| 20260506014511 | 52 | 240 | 6.0 | 17.0 | 0.00 | 0.00 | 0.00 | 35 | 1001.6 |
| 20260506013004 | 53 | 359 | 10.0 | 21.0 | 0.00 | 0.00 | 0.00 | 33 | 1001.5 |
| 20260506011503 | 52 | 268 | 6.0 | 15.0 | 0.00 | 0.00 | 0.00 | 35 | 1001.4 |
| 20260506010001 | 50 | 359 | 7.0 | 13.0 | 0.00 | 0.00 | 0.00 | 38 | 1001.5 |
| 20260506004501 | 50 | 359 | 3.0 | 11.0 | 0.00 | 0.00 | 0.00 | 41 | 1001.4 |
| 20260506003100 | 50 | 253 | 6.0 | 12.0 | 0.00 | 0.00 | 0.00 | 40 | 1001.4 |
| 20260506001603 | 50 | 228 | 4.0 | 10.0 | 0.00 | 0.00 | 0.00 | 42 | 1001.2 |
| 20260506000119 | 50 | 273 | 5.0 | 11.0 | 0.00 | 0.00 | 0.00 | 42 | 1001.2 |
| 20260505234557 | 51 | 209 | 3.0 | 8.0 | 0.00 | 0.00 | 0.00 | 43 | 1000.9 |
| 20260505233059 | 51 | 359 | 7.0 | 11.0 | 0.00 | 0.00 | 0.00 | 40 | 1000.9 |
| 20260505231606 | 52 | 263 | 5.0 | 11.0 | 0.00 | 0.00 | 0.00 | 39 | 1000.9 |
| 20260505230105 | 53 | 359 | 5.0 | 12.0 | 0.00 | 0.00 | 0.00 | 39 | 1000.9 |
| 20260505224557 | 54 | 182 | 4.0 | 20.0 | 0.00 | 0.00 | 0.00 | 39 | 1000.5 |
| 20260505223052 | 53 | 359 | 5.0 | 18.0 | 0.00 | 0.00 | 0.00 | 39 | 1000.5 |
| 20260505221558 | 53 | 267 | 5.0 | 15.0 | 0.00 | 0.00 | 0.00 | 39 | 1000.4 |
| 20260505220051 | 53 | 359 | 7.0 | 14.0 | 0.00 | 0.00 | 0.00 | 39 | 1000.3 |
| 20260505214551 | 53 | 237 | 4.0 | 14.0 | 0.00 | 0.00 | 0.00 | 38 | 1000.2 |
| 20260505213053 | 54 | 359 | 10.0 | 20.0 | 0.00 | 0.00 | 0.00 | 36 | 1000.2 |
| 20260505211550 | 55 | 185 | 9.0 | 17.0 | 0.00 | 0.00 | 0.00 | 36 | 1000.0 |
| 20260505210049 | 55 | 210 | 9.0 | 16.0 | 0.00 | 0.00 | 0.00 | 36 | 999.9 |
| 20260505204551 | 55 | 176 | 7.0 | 20.0 | 0.00 | 0.00 | 0.00 | 36 | 999.6 |
| 20260505203055 | 54 | 229 | 7.0 | 11.0 | 0.00 | 0.00 | 0.00 | 38 | 999.5 |
| 20260505201547 | 55 | 193 | 5.0 | 19.0 | 0.00 | 0.00 | 0.00 | 37 | 999.4 |
| 20260505200046 | 53 | 242 | 8.0 | 22.0 | 0.00 | 0.00 | 0.00 | 40 | 999.2 |
| 20260505194558 | 54 | 262 | 2.0 | 14.0 | 0.00 | 0.00 | 0.00 | 39 | 999.1 |
| 20260505193041 | 53 | 260 | 6.0 | 10.0 | 0.00 | 0.00 | 0.00 | 41 | 999.1 |
| 20260505191552 | 54 | 232 | 6.0 | 14.0 | 0.00 | 0.00 | 0.00 | 40 | 999.2 |
| 20260505190041 | 54 | 283 | 8.0 | 17.0 | 0.00 | 0.00 | 0.00 | 41 | 999.3 |
| 20260505184537 | 53 | 266 | 5.0 | 11.0 | 0.00 | 0.00 | 0.00 | 48 | 999.1 |
| 20260505183034 | 51 | 281 | 2.0 | 6.0 | 0.00 | 0.00 | 0.00 | 50 | 999.0 |
| 20260505181536 | 51 | 284 | 0.0 | 8.0 | 0.00 | 0.00 | 0.00 | 56 | 999.0 |
| 20260505180039 | 50 | 310 | 1.0 | 4.0 | 0.00 | 0.00 | 0.00 | 62 | 998.7 |
| 20260505174532 | 50 | 359 | 3.0 | 8.0 | 0.00 | 0.00 | 0.00 | 63 | 998.7 |